Location: Unspecified
(42.3650°N, 71.1030°W)
Time: 12:38:53
(UTC+00:00)

Courier 1B - Pass Details

Date: 28 June 2024
Orbit: 962 x 1209 km, 28.3° (Epoch: 25 July)

Event Time Altitude Azimuth Distance (km) Brightness Sun altitude
Rises 01:28:07 0° 202° (SSW) 3,635 10.3 -9.8°
Reaches altitude 10° 01:33:44 10° 163° (SSE) 2,728 9.3 -10.6°
Enters shadow 01:34:09 10° 160° (SSE) 2,715 9.3 -10.6°
Maximum altitude 01:34:43 10° 155° (SSE) 2,712 - -10.7°
Drops below altitude 10° 01:35:42 10° 146° (SE) 2,747 - -10.8°
Sets 01:41:29 0° 108° (ESE) 3,767 - -11.6°
